BREEZE-M DEB (TANK), 40366

Orbit data source: Space-Track

BREEZE-M DEB (TANK), 40366 is space debris in HEO originally from a launch on Sat, 27 Dec 2014 UTC launched from the Tyuratam Missile And Space Complex (TTMTR). Debris objects in space refer to the collection of defunct objects orbiting the Earth. Examples of debris include non-operational satellites, rocket bodies, and fragments generated from explosions, collisions, or faulty payload assembly.

Loading next visibility...
Identifier
40366, 2014-089C
Orbit
HEO
Last TLE update
13 hours ago
Origin
Manufacturer
Khrunichev
Mission
Spacecraft
Bus & Motor
BRIZ TANK, Unknown motor
Mass
~1,000 kg wet, 1,000 kg dry
Launch date (UTC)
2014-12-27 (11 years ago)
Launch vehicle
Unknown
Launch site
Tyuratam Missile And Space Complex (TTMTR)
Object type
Payload
Rocket body
Debris
Shape & HBR
Torus, 4 m
Radar Cross Section
8.218 m², Large (>1 m²)

Expand to show TLE details & history

TLE from 13 hours ago
0 BREEZE-M DEB (TANK)
1 40366U 14089C   25191.63386134  .00001589  00000-0  32611-3 0  9992
2 40366  49.5489 311.2345 5161611  25.5366 352.8278  5.34706253201404
Epoch: 2025-07-10T15:12Z
TLE epoch observation values (Epoch: 2025-07-10T15:12:45.619Z)
Latitude
-0.00005°
Longitude
154.24556°
Altitude
535.573 km
Speed
9.299 km/s
True Right ascension
20h 44m 55s
True Declination
0° 00' 00"
Sunlit
Object was in full shadow at epoch
Visualization orbit readout
Latitude
-3.31926°
Longitude
150.97841°
Altitude
630.426 km
Speed
9.215 km/s
Apparent Right ascension
23h 27m 34s
Apparent Declination
-38° 07' 45"
Sunlit
Object is in full shadow
Visualization observer readout
Local Sidereal Time
16:56:33
Azimuth
117.485° SE
Elevation
-28.526°
Doppler factor
1
Orbital elements
Apogee altitude
14,567.404 km
Perigee altitude
306.026 km
Semi-major axis
13,814.852 km
Eccentricity
0.51616
Inclination
49.5489°
RAAN
311.2345°
Arg. of periapsis
25.5366°
True anomaly
Unknown
Mean anomaly
352.8278°
Eccentric anomaly
Unknown
Mean motion
1.33667 °/min
Orbital period
269.33 mins
BSTAR
0.00032611
Loading maneuver chart data...
Loading SW <> Apogee altitude chart data...
Loading historical data...
Loading historical data...
Loading historical data...
Loading historical data...
Loading historical data...
Loading historical data...
Loading historical data...
Other satellites on launch #89 in the year 2014 (2014-12-27 UTC)

BREEZE-M DEB (TANK) Visibility forecast

Observer location: undefined°, undefined°

Span
Click to sort rows by Start time (UTC) header in descending order
Start Az.
Max El. time (UTC)
Max El. Az.
Max El.
End time (UTC)
End Az.
30 mins2025-07-11 13:53:38.005Z293.106° NW2025-07-11 13:58:38.005Z1.828° NNE37.273°2025-07-11 14:23:38.005Z81.881° E
117 mins2025-07-11 18:33:38.005Z298.896° NW2025-07-11 18:50:38.005Z223.227° SW42.803°2025-07-11 20:30:38.005Z162.715° S
|